Time,TemperatureF,DewpointF,PressureIn,WindDirection,WindDirectionDegrees,WindSpeedMPH,WindSpeedGustMPH,Humidity,HourlyPrecipIn,Conditions,Clouds,dailyrainin,SoftwareType,DateUTC
2013-08-18 00:42:00,69.0,39.0,29.58,North,0,0.0,-999.0,33,0.00,,,-99.99,,2013-08-18 07:42:00,
2013-08-18 00:52:00,69.0,39.0,29.58,North,0,0.0,-999.0,33,0.00,,,-99.99,,2013-08-18 07:52:00,
2013-08-18 01:21:00,70.0,40.0,29.57,ESE,120,1.0,-999.0,33,0.00,,,-99.99,,2013-08-18 08:21:00,
2013-08-18 01:32:00,70.0,40.0,29.57,ESE,120,1.0,-999.0,33,0.00,,,-99.99,,2013-08-18 08:32:00,
2013-08-18 01:42:00,70.0,40.0,29.57,ESE,120,1.0,-999.0,33,0.00,,,-99.99,,2013-08-18 08:42:00,
2013-08-18 01:52:00,70.0,40.0,29.57,ESE,120,1.0,-999.0,33,0.00,,,-99.99,,2013-08-18 08:52:00,
2013-08-18 02:43:00,69.0,40.0,29.56,SSW,200,1.0,-999.0,35,0.00,,,-99.99,,2013-08-18 09:43:00,
2013-08-18 02:53:00,69.0,40.0,29.56,SSW,200,1.0,-999.0,35,0.00,,,-99.99,,2013-08-18 09:53:00,
2013-08-18 03:42:00,69.0,43.0,29.56,SSE,150,3.0,-999.0,39,0.00,,,-99.99,,2013-08-18 10:42:00,
2013-08-18 03:52:00,69.0,43.0,29.56,SSE,150,3.0,-999.0,39,0.00,,,-99.99,,2013-08-18 10:52:00,
2013-08-18 04:42:00,69.0,42.0,29.54,North,0,0.0,-999.0,37,0.00,,,-99.99,,2013-08-18 11:42:00,
2013-08-18 04:52:00,69.0,42.0,29.54,North,0,0.0,-999.0,37,0.00,,,-99.99,,2013-08-18 11:52:00,
2013-08-18 05:42:00,68.0,42.0,29.55,North,0,0.0,-999.0,39,0.00,,,-99.99,,2013-08-18 12:42:00,
2013-08-18 05:52:00,68.0,42.0,29.55,North,0,0.0,-999.0,39,0.00,,,-99.99,,2013-08-18 12:52:00,
2013-08-18 08:43:00,70.0,45.0,29.61,North,0,0.0,-999.0,40,0.00,,,-99.99,,2013-08-18 15:43:00,
2013-08-18 08:53:00,70.0,45.0,29.61,North,0,0.0,-999.0,40,0.00,,,-99.99,,2013-08-18 15:53:00,
2013-08-18 09:42:00,73.0,44.0,29.62,South,190,3.0,-999.0,35,0.00,,,-99.99,,2013-08-18 16:42:00,
2013-08-18 09:52:00,73.0,44.0,29.62,South,190,3.0,-999.0,35,0.00,,,-99.99,,2013-08-18 16:52:00,
2013-08-18 10:42:00,75.0,44.0,29.61,South,170,2.0,-999.0,33,0.00,,,-99.99,,2013-08-18 17:42:00,
2013-08-18 10:52:00,75.0,44.0,29.61,South,170,2.0,-999.0,33,0.00,,,-99.99,,2013-08-18 17:52:00,
2013-08-18 11:42:00,76.0,43.0,29.61,North,0,0.0,-999.0,31,0.00,,,-99.99,,2013-08-18 18:42:00,
2013-08-18 11:52:00,76.0,43.0,29.61,North,0,0.0,-999.0,31,0.00,,,-99.99,,2013-08-18 18:52:00,
2013-08-18 12:41:00,78.0,44.0,29.60,West,280,8.0,-999.0,30,0.00,,,-99.99,,2013-08-18 19:41:00,
2013-08-18 12:52:00,78.0,44.0,29.60,West,280,8.0,-999.0,30,0.00,,,-99.99,,2013-08-18 19:52:00,
2013-08-18 13:42:00,78.0,45.0,29.56,North,0,0.0,-999.0,31,0.00,,,-99.99,,2013-08-18 20:42:00,
2013-08-18 13:52:00,78.0,45.0,29.56,North,0,0.0,-999.0,31,0.00,,,-99.99,,2013-08-18 20:52:00,
2013-08-18 14:42:00,78.0,46.0,29.57,WSW,240,5.0,-999.0,32,0.00,,,-99.99,,2013-08-18 21:42:00,
2013-08-18 14:53:00,78.0,46.0,29.57,WSW,240,5.0,-999.0,32,0.00,,,-99.99,,2013-08-18 21:53:00,
2013-08-18 15:42:00,78.0,46.0,29.56,North,0,0.0,-999.0,32,0.00,,,-99.99,,2013-08-18 22:42:00,
2013-08-18 15:52:00,78.0,46.0,29.56,North,0,0.0,-999.0,32,0.00,,,-99.99,,2013-08-18 22:52:00,
2013-08-18 16:42:00,76.0,46.0,29.54,North,0,0.0,-999.0,34,0.00,,,-99.99,,2013-08-18 23:42:00,
2013-08-18 16:52:00,76.0,46.0,29.54,North,0,0.0,-999.0,34,0.00,,,-99.99,,2013-08-18 23:52:00,
2013-08-18 17:21:00,74.0,46.0,29.55,WSW,240,2.0,-999.0,37,0.00,,,-99.99,,2013-08-19 00:21:00,
2013-08-18 17:32:00,74.0,46.0,29.55,WSW,240,2.0,-999.0,37,0.00,,,-99.99,,2013-08-19 00:32:00,
2013-08-18 17:42:00,74.0,46.0,29.55,WSW,240,2.0,-999.0,37,0.00,,,-99.99,,2013-08-19 00:42:00,
2013-08-18 17:52:00,74.0,46.0,29.55,WSW,240,2.0,-999.0,37,0.00,,,-99.99,,2013-08-19 00:52:00,
2013-08-18 18:42:00,73.0,48.0,29.58,South,180,1.0,-999.0,41,0.00,,,-99.99,,2013-08-19 01:42:00,
2013-08-18 18:52:00,73.0,48.0,29.58,South,180,1.0,-999.0,41,0.00,,,-99.99,,2013-08-19 01:52:00,
2013-08-18 19:42:00,71.0,45.0,29.58,North,0,0.0,-999.0,40,0.00,,,-99.99,,2013-08-19 02:42:00,
2013-08-18 19:52:00,71.0,45.0,29.58,North,0,0.0,-999.0,40,0.00,,,-99.99,,2013-08-19 02:52:00,
2013-08-18 20:42:00,68.0,45.0,29.61,North,0,0.0,-999.0,44,0.00,,,-99.99,,2013-08-19 03:42:00,
2013-08-18 20:53:00,68.0,45.0,29.61,North,0,0.0,-999.0,44,0.00,,,-99.99,,2013-08-19 03:53:00,
2013-08-18 21:42:00,66.0,47.0,29.62,North,0,0.0,-999.0,50,0.00,,,-99.99,,2013-08-19 04:42:00,
2013-08-18 21:53:00,66.0,47.0,29.62,North,0,0.0,-999.0,50,0.00,,,-99.99,,2013-08-19 04:53:00,
2013-08-18 22:42:00,66.0,47.0,29.63,North,10,1.0,-999.0,50,0.00,,,-99.99,,2013-08-19 05:42:00,
2013-08-18 22:52:00,66.0,47.0,29.63,North,10,1.0,-999.0,50,0.00,,,-99.99,,2013-08-19 05:52:00,
2013-08-18 23:42:00,66.0,47.0,29.62,North,0,0.0,-999.0,51,0.00,,,-99.99,,2013-08-19 06:42:00,
2013-08-18 23:51:00,66.0,47.0,29.62,North,0,0.0,-999.0,51,0.00,,,-99.99,,2013-08-19 06:51:00,